TimeMDT,TemperatureF,Dew PointF,Humidity,Sea Level PressureIn,VisibilityMPH,Wind Direction,Wind SpeedMPH,Gust SpeedMPH,PrecipitationIn,Events,Conditions,WindDirDegrees,DateUTC
12:53 AM,26.1,12.9,58,30.24,10.0,SW,6.9,-,N/A,,Clear,230,2013-03-10 07:53:00
1:53 AM,25.0,12.0,58,30.25,10.0,SW,6.9,-,N/A,,Clear,230,2013-03-10 08:53:00
3:53 AM,25.0,12.0,58,30.23,10.0,SW,4.6,-,N/A,,Clear,220,2013-03-10 09:53:00
4:53 AM,21.0,12.9,71,30.22,10.0,East,3.5,-,N/A,,Clear,80,2013-03-10 10:53:00
5:53 AM,23.0,12.0,63,30.23,10.0,Calm,Calm,-,N/A,,Clear,0,2013-03-10 11:53:00
6:53 AM,25.0,10.0,53,30.25,10.0,Calm,Calm,-,N/A,,Clear,0,2013-03-10 12:53:00
7:53 AM,21.9,10.0,60,30.27,10.0,SW,3.5,-,N/A,,Clear,220,2013-03-10 13:53:00
8:53 AM,25.0,12.9,60,30.27,10.0,SE,3.5,-,N/A,,Clear,130,2013-03-10 14:53:00
9:53 AM,30.9,15.1,52,30.26,10.0,ESE,3.5,-,N/A,,Clear,120,2013-03-10 15:53:00
10:53 AM,37.0,16.0,42,30.23,10.0,SE,4.6,-,N/A,,Clear,130,2013-03-10 16:53:00
11:53 AM,44.1,10.9,26,30.17,10.0,SE,10.4,-,N/A,,Clear,140,2013-03-10 17:53:00
12:53 PM,46.0,12.0,25,30.14,10.0,SE,15.0,-,N/A,,Clear,130,2013-03-10 18:53:00
1:53 PM,46.9,12.0,24,30.12,10.0,ESE,5.8,-,N/A,,Clear,120,2013-03-10 19:53:00
2:53 PM,48.9,14.0,25,30.07,10.0,ESE,3.5,-,N/A,,Clear,120,2013-03-10 20:53:00
3:53 PM,48.9,12.9,24,30.06,10.0,Calm,Calm,-,N/A,,Clear,0,2013-03-10 21:53:00
4:53 PM,50.0,12.9,23,30.03,10.0,SSE,3.5,-,N/A,,Clear,150,2013-03-10 22:53:00
5:53 PM,50.0,12.0,22,30.02,10.0,Calm,Calm,-,N/A,,Clear,0,2013-03-10 23:53:00
6:53 PM,45.0,19.0,36,30.04,10.0,WSW,6.9,-,N/A,,Clear,240,2013-03-11 00:53:00
7:53 PM,41.0,21.9,47,30.06,10.0,WSW,9.2,-,N/A,,Clear,240,2013-03-11 01:53:00
8:53 PM,42.1,19.9,41,30.06,10.0,Calm,Calm,-,N/A,,Clear,0,2013-03-11 02:53:00
9:53 PM,39.0,21.0,49,30.05,10.0,Calm,Calm,-,N/A,,Partly Cloudy,0,2013-03-11 03:53:00
10:53 PM,39.0,19.9,46,30.03,10.0,West,8.1,-,N/A,,Clear,260,2013-03-11 04:53:00
11:53 PM,41.0,14.0,33,29.98,10.0,West,6.9,-,N/A,,Clear,280,2013-03-11 05:53:00
12:53 AM,39.9,14.0,35,29.95,10.0,WNW,4.6,-,N/A,,Clear,300,2013-03-11 06:53:00